Weather in Mikhaylovka

Russia / Republic of Bashkortostan     55°34′49″N   57°55′58″E
temp.,
°C
wind,
m/s
gust,
m/s
humid.,
%
clouds,
%
prec.,
mm/h
press.,
hPa
HPBL,
m
26 february, fri
fri2623:00−26sw129767 0.0 103020
02:00−27s12980 0.0 102919
05:00−28sse11990 0.0 102919
08:00−28sse11970 0.0 102819
11:00−22se228323 0.0 1026134
14:00−18ese127272 0.0 1025247
17:00−17ene128437 0.0 102454
20:00−22ese11831 0.0 102320
27 february, sat
sat2723:00−21se118538 0.0 102220
02:00−22ese229441 0.0 101920
05:00−22ese229158 0.0 101720
08:00−21e2287100 0.0 101329
11:00−16ese4797100 0.4 1011231
14:00−12ese5794100 1.1 1008395
17:00−11sse6888100 1.4 1007554
20:00−14ese4696100 0.9 1006253
28 february, sun
sun2823:00−14e2397100 1.6 100598
02:00−15ene229796 0.3 100329
05:00−14e129696 0.5 100321
08:00−14ene229689 0.3 100222
11:00−11ene239385 0.3 1003211
14:00−7ene3491100 0.3 1003326
17:00−6ne3595100 0.5 1004329
20:00−10ne599596 0.3 1006219
1 march, mon
mon123:00−12ne599598 0.6 1009258
02:00−14ne5995100 0.6 1011296
05:00−16nne4796100 1.1 1013271
08:00−18nne4797100 0.3 1016203
11:00−17nne4593100 0.4 1017321
14:00−14nne3490100 0.1 1017410
17:00−14n2389100 0.1 1018392
20:00−20nnw1110080 0.0 101920
2 march, tue
tue223:00−22wsw1110046 0.0 102020
02:00−21sw2210012 0.0 101820
05:00−22sw2310039 0.0 101821
08:00−24ssw349987 0.0 101642
11:00−18sw499386 0.0 1013348
14:00−13sw61084100 0.0 1010540
17:00−12sw61185100 0.0 1008577
20:00−13sw61291100 0.2 1007569